CDT,Max TemperatureF,Mean TemperatureF,Min TemperatureF,Max Dew PointF,MeanDew PointF,Min DewpointF,Max Humidity, Mean Humidity, Min Humidity, Max Sea Level PressureIn, Mean Sea Level PressureIn, Min Sea Level PressureIn, Max VisibilityMiles, Mean VisibilityMiles, Min VisibilityMiles, Max Wind SpeedMPH, Mean Wind SpeedMPH, Max Gust SpeedMPH,PrecipitationIn, CloudCover, Events, WindDirDegrees
2012-10-1,77,65,53,49,44,41,71,50,31,29.98,29.93,29.89,10,10,10,21,7,30,0.00,0,,349
2012-10-2,74,59,44,41,36,32,67,43,24,30.00,29.94,29.87,10,10,10,10,6,,0.00,0,,321
2012-10-3,80,60,41,44,37,32,76,43,19,29.93,29.88,29.81,10,10,10,23,8,30,0.00,0,,192
2012-10-4,62,54,45,45,37,32,82,57,38,30.31,30.18,29.92,10,10,10,25,13,38,0.00,2,Rain-Thunderstorm,344
2012-10-5,51,44,36,32,29,24,81,58,37,30.35,30.30,30.25,10,10,10,15,7,21,0.00,1,,337
2012-10-6,48,40,32,27,25,23,73,56,39,30.38,30.32,30.28,10,10,10,14,7,22,0.00,1,,333
2012-10-7,57,41,25,32,26,22,88,59,30,30.31,30.20,30.06,10,10,10,16,8,24,0.00,0,,249
2012-10-8,70,54,39,36,33,32,75,51,25,30.05,29.94,29.83,10,10,10,23,14,30,0.00,0,,213
2012-10-9,58,48,38,43,33,24,63,49,31,30.15,29.95,29.83,10,10,10,22,12,26,0.00,1,,303
2012-10-10,64,48,32,31,28,25,77,50,27,30.26,30.16,30.07,10,10,10,14,7,17,0.00,0,,239
2012-10-11,71,58,45,43,35,29,61,47,34,30.32,30.10,30.03,10,10,10,23,13,30,0.03,3,,222
2012-10-12,55,46,37,41,28,22,67,47,38,30.34,30.26,30.10,10,10,10,18,13,24,0.00,5,,102
2012-10-13,76,64,52,68,62,50,100,92,69,29.98,29.76,29.56,10,7,2,23,12,29,1.36,7,Rain-Thunderstorm,190
2012-10-14,66,58,50,60,48,39,100,72,38,30.00,29.84,29.59,10,9,2,28,12,34,0.79,2,Rain-Thunderstorm,313
2012-10-15,75,60,45,50,44,39,84,59,34,30.00,29.91,29.78,10,9,3,13,6,17,0.00,0,,171
2012-10-16,79,64,51,51,49,46,89,62,31,29.77,29.56,29.43,10,10,10,18,10,24,0.00,0,,221
2012-10-17,65,56,48,56,41,25,96,54,30,29.63,29.51,29.37,10,10,7,32,14,40,0.06,3,Rain,288
2012-10-18,51,48,44,43,33,25,91,58,38,29.65,29.59,29.55,10,9,4,36,20,47,0.08,5,Rain,292
2012-10-19,49,44,38,42,41,39,100,85,74,29.84,29.75,29.63,10,10,4,28,18,40,0.01,7,Rain,324
2012-10-20,67,52,36,45,41,36,100,74,38,29.83,29.78,29.69,10,9,1,14,4,18,0.00,0,,143
2012-10-21,80,63,46,66,55,43,91,75,55,29.79,29.75,29.70,10,10,7,20,8,28,0.00,2,Thunderstorm,150
2012-10-22,75,66,58,70,66,59,100,93,75,29.81,29.76,29.73,10,6,2,15,4,,0.00,6,Thunderstorm,282
2012-10-23,82,69,56,66,59,56,100,81,44,29.81,29.73,29.64,10,7,2,20,6,25,0.00,5,,217
2012-10-24,74,62,50,68,58,50,100,93,69,29.77,29.73,29.69,10,5,0,18,5,25,0.00,6,Fog-Rain,335
2012-10-25,50,45,39,50,44,38,99,97,95,29.89,29.74,29.64,10,6,2,26,16,32,0.54,8,Rain-Thunderstorm,354
2012-10-26,44,38,32,27,26,25,74,62,49,30.50,30.44,30.41,10,10,10,16,9,20,0.01,4,,345
2012-10-27,46,36,26,30,26,22,90,67,45,30.41,30.34,30.26,10,10,10,5,0,,0.00,0,,110
2012-10-28,52,40,30,31,29,26,86,64,42,30.33,30.27,30.22,10,10,10,12,3,17,0.00,3,,162
2012-10-29,58,50,41,32,30,28,67,51,36,30.25,30.18,30.10,10,10,10,21,10,26,0.00,3,,159
2012-10-30,55,44,34,32,29,25,82,57,33,30.11,30.06,30.02,10,10,10,14,3,16,0.00,2,,108
2012-10-31,60,47,34,35,30,25,75,54,36,30.08,30.03,29.98,10,10,10,4,0,,0.00,0,,200